| time (UTC) | temp F | wind direction | speed knots | gust knots | rain 1hr in | rain 24hr in | rain mn in | humidity % | barometer mb |
| 20260507163207 | 91 | 217 | 4.3 | 12.2 | 0.00 | 0.00 | 0.00 | 52 | 1015.6 |
| 20260507162658 | 91 | 282 | 4.3 | 12.2 | 0.00 | 0.00 | 0.00 | 54 | 1015.7 |
| 20260507161207 | 90 | 316 | 5.2 | 15.6 | 0.00 | 0.00 | 0.00 | 51 | 1015.9 |
| 20260507160210 | 89 | 252 | 4.3 | 8.7 | 0.00 | 0.00 | 0.00 | 53 | 1015.9 |
| 20260507155650 | 89 | 237 | 5.2 | 9.6 | 0.00 | 0.00 | 0.00 | 50 | 1016.1 |
| 20260507154208 | 89 | 179 | 4.3 | 10.4 | 0.00 | 0.00 | 0.00 | 50 | 1016.2 |
| 20260507153159 | 89 | 249 | 4.3 | 10.4 | 0.00 | 0.00 | 0.00 | 52 | 1016.2 |
| 20260507152652 | 88 | 232 | 4.3 | 8.7 | 0.00 | 0.00 | 0.00 | 51 | 1016.3 |
| 20260507151643 | 87 | 224 | 4.3 | 10.4 | 0.00 | 0.00 | 0.00 | 53 | 1016.3 |
| 20260507150158 | 87 | 230 | 4.3 | 9.6 | 0.00 | 0.00 | 0.00 | 52 | 1016.5 |
| 20260507145146 | 87 | 179 | 4.3 | 10.4 | 0.00 | 0.00 | 0.00 | 52 | 1016.4 |
| 20260507144146 | 86 | 243 | 5.2 | 11.3 | 0.00 | 0.00 | 0.00 | 55 | 1016.4 |
| 20260507143147 | 85 | 240 | 5.2 | 13.0 | 0.00 | 0.00 | 0.00 | 54 | 1016.4 |
| 20260507142145 | 85 | 210 | 5.2 | 11.3 | 0.00 | 0.00 | 0.00 | 55 | 1016.4 |
| 20260507141146 | 84 | 201 | 5.2 | 10.4 | 0.00 | 0.00 | 0.00 | 57 | 1016.4 |
| 20260507140145 | 84 | 187 | 4.3 | 8.7 | 0.00 | 0.00 | 0.00 | 59 | 1016.4 |
| 20260507135626 | 83 | 204 | 3.5 | 9.6 | 0.00 | 0.00 | 0.00 | 63 | 1016.4 |
| 20260507134629 | 82 | 190 | 4.3 | 9.6 | 0.00 | 0.00 | 0.00 | 66 | 1016.4 |
| 20260507133142 | 82 | 202 | 3.5 | 11.3 | 0.00 | 0.00 | 0.00 | 70 | 1016.4 |
| 20260507132618 | 81 | 197 | 3.5 | 9.6 | 0.00 | 0.00 | 0.00 | 72 | 1016.2 |
| 20260507131142 | 80 | 171 | 3.5 | 7.8 | 0.00 | 0.00 | 0.00 | 74 | 1016.2 |
| 20260507130619 | 79 | 183 | 3.5 | 7.0 | 0.00 | 0.00 | 0.00 | 75 | 1016.2 |
| 20260507125626 | 78 | 208 | 2.6 | 7.0 | 0.00 | 0.00 | 0.00 | 77 | 1016.2 |
| 20260507124143 | 76 | 181 | 2.6 | 6.1 | 0.00 | 0.00 | 0.00 | 79 | 1016.1 |
| 20260507123135 | 75 | 202 | 3.5 | 6.1 | 0.00 | 0.00 | 0.00 | 82 | 1016.1 |
| 20260507122132 | 74 | 195 | 3.5 | 7.8 | 0.00 | 0.00 | 0.00 | 84 | 1016.1 |
| 20260507121132 | 74 | 204 | 1.7 | 6.1 | 0.00 | 0.00 | 0.00 | 86 | 1016.2 |
| 20260507120133 | 72 | 193 | 2.6 | 6.1 | 0.00 | 0.00 | 0.00 | 89 | 1016.1 |
| 20260507115133 | 70 | 176 | 1.7 | 5.2 | 0.00 | 0.00 | 0.00 | 92 | 1015.9 |
| 20260507114619 | 68 | 183 | 0.9 | 4.3 | 0.00 | 0.00 | 0.00 | 92 | 1015.9 |
| 20260507113135 | 67 | 188 | 0.0 | 0.0 | 0.00 | 0.00 | 0.00 | 92 | 1015.9 |
| 20260507112624 | 66 | 188 | 0.0 | 0.9 | 0.00 | 0.00 | 0.00 | 92 | 1015.9 |
| 20260507111135 | 66 | 167 | 0.0 | 0.0 | 0.00 | 0.00 | 0.00 | 92 | 1015.7 |
| 20260507110130 | 66 | 165 | 0.0 | 0.0 | 0.00 | 0.00 | 0.00 | 92 | 1015.7 |
| 20260507105131 | 66 | 174 | 0.0 | 0.9 | 0.00 | 0.00 | 0.00 | 92 | 1015.7 |
| 20260507104130 | 66 | 177 | 0.0 | 0.9 | 0.00 | 0.00 | 0.00 | 92 | 1015.6 |
| 20260507103131 | 66 | 177 | 0.0 | 0.0 | 0.00 | 0.00 | 0.00 | 91 | 1015.7 |
| 20260507102117 | 67 | 177 | 0.0 | 0.0 | 0.00 | 0.00 | 0.00 | 90 | 1015.6 |
| 20260507102037 | 67 | 177 | 0.0 | 0.9 | 0.00 | 0.00 | 0.00 | 90 | 1015.5 |
| 20260507100600 | 67 | 177 | 0.0 | 0.0 | 0.00 | 0.00 | 0.00 | 90 | 1015.3 |
| 20260507095115 | 67 | 177 | 0.0 | 0.9 | 0.00 | 0.00 | 0.00 | 90 | 1015.1 |
| 20260507094118 | 67 | 177 | 0.0 | 0.9 | 0.00 | 0.00 | 0.00 | 90 | 1014.9 |
| 20260507093119 | 67 | 177 | 0.0 | 0.9 | 0.00 | 0.00 | 0.00 | 90 | 1014.8 |
| 20260507092117 | 67 | 177 | 0.0 | 0.0 | 0.00 | 0.00 | 0.00 | 89 | 1014.9 |
| 20260507091114 | 68 | 177 | 0.0 | 0.0 | 0.00 | 0.00 | 0.00 | 88 | 1015.0 |
| 20260507090113 | 68 | 177 | 0.0 | 0.0 | 0.00 | 0.00 | 0.00 | 89 | 1015.1 |
| 20260507085113 | 69 | 177 | 0.0 | 0.0 | 0.00 | 0.00 | 0.00 | 89 | 1015.0 |
| 20260507084113 | 69 | 177 | 0.0 | 0.9 | 0.00 | 0.00 | 0.00 | 89 | 1014.9 |
| 20260507083113 | 69 | 177 | 0.0 | 0.9 | 0.00 | 0.00 | 0.00 | 90 | 1014.8 |
| 20260507082113 | 69 | 177 | 0.0 | 0.0 | 0.00 | 0.00 | 0.00 | 88 | 1014.6 |
| 20260507081112 | 69 | 177 | 0.0 | 2.6 | 0.00 | 0.00 | 0.00 | 87 | 1014.7 |
| 20260507080602 | 70 | 177 | 0.0 | 2.6 | 0.00 | 0.00 | 0.00 | 85 | 1014.7 |
| 20260507075113 | 70 | 177 | 0.9 | 2.6 | 0.00 | 0.00 | 0.00 | 85 | 1014.7 |
| 20260507074113 | 70 | 177 | 0.0 | 2.6 | 0.00 | 0.00 | 0.00 | 84 | 1014.7 |
| 20260507073110 | 71 | 177 | 0.0 | 0.0 | 0.00 | 0.00 | 0.00 | 83 | 1014.9 |
| 20260507072110 | 72 | 177 | 0.0 | 0.9 | 0.00 | 0.00 | 0.00 | 81 | 1014.9 |
| 20260507071109 | 72 | 177 | 0.9 | 2.6 | 0.00 | 0.00 | 0.00 | 79 | 1014.9 |
| 20260507070110 | 73 | 177 | 1.7 | 4.3 | 0.00 | 0.00 | 0.00 | 78 | 1015.0 |
| 20260507065547 | 74 | 177 | 1.7 | 5.2 | 0.00 | 0.00 | 0.00 | 77 | 1015.0 |
| 20260507064108 | 74 | 170 | 2.6 | 4.3 | 0.00 | 0.00 | 0.00 | 76 | 1015.2 |
| 20260507063109 | 74 | 181 | 1.7 | 5.2 | 0.00 | 0.00 | 0.00 | 76 | 1015.3 |
| 20260507062548 | 74 | 183 | 2.6 | 5.2 | 0.00 | 0.00 | 0.00 | 75 | 1015.4 |
| 20260507061103 | 74 | 174 | 2.6 | 5.2 | 0.00 | 0.00 | 0.00 | 74 | 1015.5 |
| 20260507060105 | 75 | 192 | 2.6 | 8.7 | 0.00 | 0.00 | 0.00 | 74 | 1015.6 |
| 20260507055538 | 75 | 150 | 3.5 | 6.1 | 0.00 | 0.00 | 0.00 | 74 | 1015.6 |
| 20260507054101 | 75 | 189 | 3.5 | 7.0 | 0.00 | 0.00 | 0.00 | 73 | 1015.6 |
| 20260507053101 | 75 | 177 | 3.5 | 6.1 | 0.00 | 0.00 | 0.00 | 73 | 1015.7 |
| 20260507052102 | 74 | 165 | 3.5 | 6.1 | 0.00 | 0.00 | 0.00 | 73 | 1015.9 |
| 20260507051548 | 74 | 176 | 1.7 | 5.2 | 0.00 | 0.00 | 0.00 | 74 | 1016.0 |
| 20260507045105 | 74 | 167 | 1.7 | 5.2 | 0.00 | 0.00 | 0.00 | 73 | 1016.2 |
| 20260507044050 | 75 | 177 | 1.7 | 4.3 | 0.00 | 0.00 | 0.00 | 72 | 1016.4 |
| 20260507043048 | 75 | 150 | 1.7 | 6.1 | 0.00 | 0.00 | 0.00 | 71 | 1016.4 |
| 20260507042048 | 76 | 147 | 1.7 | 6.1 | 0.00 | 0.00 | 0.00 | 70 | 1016.3 |
| 20260507041048 | 76 | 151 | 2.6 | 6.1 | 0.00 | 0.00 | 0.00 | 70 | 1016.2 |
| 20260507040047 | 76 | 154 | 2.6 | 6.1 | 0.00 | 0.00 | 0.00 | 69 | 1016.2 |
| 20260507035524 | 76 | 156 | 1.7 | 4.3 | 0.00 | 0.00 | 0.00 | 69 | 1016.3 |
| 20260507034037 | 77 | 156 | 2.6 | 5.2 | 0.00 | 0.00 | 0.00 | 68 | 1016.3 |
| 20260507033521 | 77 | 154 | 2.6 | 6.1 | 0.00 | 0.00 | 0.00 | 67 | 1016.3 |
| 20260507032036 | 78 | 147 | 2.6 | 7.8 | 0.00 | 0.00 | 0.00 | 66 | 1016.2 |
| 20260507031037 | 78 | 160 | 2.6 | 6.1 | 0.00 | 0.00 | 0.00 | 66 | 1016.1 |
| 20260507030035 | 78 | 147 | 2.6 | 6.1 | 0.00 | 0.00 | 0.00 | 66 | 1016.1 |
| 20260507025037 | 78 | 146 | 3.5 | 6.1 | 0.00 | 0.00 | 0.00 | 65 | 1016.0 |
| 20260507024037 | 79 | 148 | 2.6 | 7.8 | 0.00 | 0.00 | 0.00 | 64 | 1016.2 |
| 20260507023037 | 79 | 171 | 3.5 | 7.8 | 0.00 | 0.00 | 0.00 | 63 | 1016.2 |
| 20260507022035 | 79 | 170 | 4.3 | 11.3 | 0.00 | 0.00 | 0.00 | 63 | 1016.2 |
| 20260507021036 | 79 | 181 | 2.6 | 7.8 | 0.00 | 0.00 | 0.00 | 64 | 1016.1 |
| 20260507020039 | 79 | 176 | 3.5 | 7.8 | 0.00 | 0.00 | 0.00 | 63 | 1016.0 |
| 20260507015023 | 80 | 173 | 2.6 | 6.1 | 0.00 | 0.00 | 0.00 | 62 | 1016.0 |
| 20260507014502 | 80 | 154 | 2.6 | 7.8 | 0.00 | 0.00 | 0.00 | 59 | 1015.7 |
| 20260507013022 | 81 | 156 | 2.6 | 7.8 | 0.00 | 0.00 | 0.00 | 58 | 1015.6 |
| 20260507012024 | 82 | 129 | 3.5 | 8.7 | 0.00 | 0.00 | 0.00 | 57 | 1015.5 |
| 20260507011502 | 82 | 108 | 4.3 | 8.7 | 0.00 | 0.00 | 0.00 | 57 | 1015.4 |
| 20260507010014 | 83 | 129 | 3.5 | 7.8 | 0.00 | 0.00 | 0.00 | 56 | 1015.3 |
| 20260507005448 | 83 | 115 | 4.3 | 11.3 | 0.00 | 0.00 | 0.00 | 55 | 1015.2 |
| 20260507004011 | 83 | 119 | 2.6 | 7.8 | 0.00 | 0.00 | 0.00 | 55 | 1015.2 |
| 20260507003013 | 84 | 94 | 4.3 | 8.7 | 0.00 | 0.00 | 0.00 | 54 | 1015.0 |
| 20260507002012 | 85 | 109 | 3.5 | 8.7 | 0.00 | 0.00 | 0.00 | 53 | 1015.0 |
| 20260507001002 | 86 | 117 | 4.3 | 9.6 | 0.00 | 0.00 | 0.00 | 52 | 1014.9 |
| 20260507000002 | 86 | 109 | 3.5 | 11.3 | 0.00 | 0.00 | 0.00 | 52 | 1014.9 |
| 20260506235002 | 87 | 105 | 3.5 | 9.6 | 0.00 | 0.00 | 0.00 | 51 | 1014.7 |
| 20260506234002 | 89 | 94 | 3.5 | 10.4 | 0.00 | 0.00 | 0.00 | 47 | 1014.6 |
| 20260506233004 | 91 | 132 | 2.6 | 5.2 | 0.00 | 0.00 | 0.00 | 42 | 1014.5 |
| 20260506231948 | 91 | 103 | 2.6 | 7.0 | 0.00 | 0.00 | 0.00 | 41 | 1014.5 |
| 20260506230948 | 91 | 97 | 3.5 | 8.7 | 0.00 | 0.00 | 0.00 | 40 | 1014.6 |
| 20260506225948 | 92 | 92 | 3.5 | 8.7 | 0.00 | 0.00 | 0.00 | 40 | 1014.6 |
| 20260506224948 | 92 | 71 | 2.6 | 7.0 | 0.00 | 0.00 | 0.00 | 40 | 1014.6 |
| 20260506223949 | 92 | 100 | 3.5 | 8.7 | 0.00 | 0.00 | 0.00 | 41 | 1014.6 |
| 20260506222934 | 93 | 120 | 3.5 | 8.7 | 0.00 | 0.00 | 0.00 | 40 | 1014.6 |
| 20260506221935 | 93 | 98 | 2.6 | 7.8 | 0.00 | 0.00 | 0.00 | 41 | 1014.6 |
| 20260506220936 | 93 | 120 | 3.5 | 8.7 | 0.00 | 0.00 | 0.00 | 41 | 1014.6 |
| 20260506220906 | 94 | 111 | 2.6 | 7.0 | 0.00 | 0.00 | 0.00 | 40 | 1014.7 |
| 20260506214936 | 94 | 58 | 3.5 | 7.8 | 0.00 | 0.00 | 0.00 | 42 | 1014.7 |
| 20260506213936 | 94 | 124 | 3.5 | 7.0 | 0.00 | 0.00 | 0.00 | 40 | 1014.6 |
| 20260506212926 | 94 | 63 | 1.7 | 6.1 | 0.00 | 0.00 | 0.00 | 43 | 1014.7 |
| 20260506212849 | 94 | 171 | 2.6 | 8.7 | 0.00 | 0.00 | 0.00 | 40 | 1014.6 |
| 20260506210926 | 94 | 85 | 4.3 | 9.6 | 0.00 | 0.00 | 0.00 | 41 | 1014.6 |
| 20260506205923 | 94 | 113 | 3.5 | 8.7 | 0.00 | 0.00 | 0.00 | 40 | 1014.6 |
| 20260506204926 | 95 | 138 | 2.6 | 7.0 | 0.00 | 0.00 | 0.00 | 40 | 1014.6 |
| 20260506203916 | 94 | 135 | 2.6 | 7.0 | 0.00 | 0.00 | 0.00 | 38 | 1014.7 |
| 20260506202918 | 95 | 136 | 2.6 | 7.0 | 0.00 | 0.00 | 0.00 | 39 | 1014.8 |
| 20260506202406 | 95 | 143 | 1.7 | 4.3 | 0.00 | 0.00 | 0.00 | 40 | 1014.9 |
| 20260506200918 | 94 | 326 | 1.7 | 4.3 | 0.00 | 0.00 | 0.00 | 38 | 1014.8 |
| 20260506195916 | 94 | 5 | 2.6 | 7.8 | 0.00 | 0.00 | 0.00 | 39 | 1014.9 |
| 20260506194917 | 94 | 130 | 3.5 | 9.6 | 0.00 | 0.00 | 0.00 | 38 | 1014.9 |
| 20260506193918 | 94 | 181 | 1.7 | 6.1 | 0.00 | 0.00 | 0.00 | 39 | 1015.1 |
| 20260506192914 | 95 | 200 | 1.7 | 5.2 | 0.00 | 0.00 | 0.00 | 37 | 1015.2 |
| 20260506191913 | 95 | 135 | 2.6 | 6.1 | 0.00 | 0.00 | 0.00 | 40 | 1015.3 |
| 20260506190912 | 94 | 165 | 3.5 | 9.6 | 0.00 | 0.00 | 0.00 | 40 | 1015.5 |
| 20260506190357 | 94 | 223 | 2.6 | 7.0 | 0.00 | 0.00 | 0.00 | 40 | 1015.7 |
| 20260506184914 | 93 | 231 | 4.3 | 9.6 | 0.00 | 0.00 | 0.00 | 40 | 1015.7 |
| 20260506183913 | 94 | 193 | 3.5 | 8.7 | 0.00 | 0.00 | 0.00 | 40 | 1015.9 |
| 20260506182912 | 94 | 201 | 2.6 | 7.0 | 0.00 | 0.00 | 0.00 | 40 | 1016.0 |
| 20260506181910 | 92 | 256 | 3.5 | 7.0 | 0.00 | 0.00 | 0.00 | 40 | 1016.0 |
| 20260506181357 | 93 | 172 | 2.6 | 7.8 | 0.00 | 0.00 | 0.00 | 41 | 1016.1 |
| 20260506175910 | 92 | 242 | 3.5 | 7.8 | 0.00 | 0.00 | 0.00 | 38 | 1016.4 |
| 20260506174910 | 92 | 247 | 2.6 | 8.7 | 0.00 | 0.00 | 0.00 | 44 | 1016.4 |
| 20260506173912 | 91 | 326 | 2.6 | 6.1 | 0.00 | 0.00 | 0.00 | 47 | 1016.6 |
| 20260506172911 | 92 | 198 | 2.6 | 6.1 | 0.00 | 0.00 | 0.00 | 44 | 1016.7 |
| 20260506171910 | 91 | 192 | 1.7 | 6.1 | 0.00 | 0.00 | 0.00 | 46 | 1016.8 |
| 20260506170910 | 91 | 83 | 3.5 | 9.6 | 0.00 | 0.00 | 0.00 | 45 | 1016.7 |
| 20260506165910 | 90 | 119 | 3.5 | 7.0 | 0.00 | 0.00 | 0.00 | 47 | 1016.8 |
| 20260506164913 | 90 | 157 | 2.6 | 7.8 | 0.00 | 0.00 | 0.00 | 47 | 1016.9 |